Regional Weather Roundup
Issued by NWS

Home | Current Version | Previous Version | Graphics & Text | Print | Product List | Glossary On
Versions: 1 2 3 4 5 6 7 8 9 10 11 12 13 14 15 16 17 18 19 20 21 22 23 24 25 26 27 28 29 30 31 32 33 34 35 36 37 38 39 40 41 42 43 44 45 46 47 48 49 50
000
ASUS45 KTFX 291519
RWRMT
MONTANA HOURLY WEATHER ROUNDUP
NATIONAL WEATHER SERVICE GREAT FALLS MT
919 AM MDT SUN MAR 29 2015

NOTE: "FAIR" INDICATES FEW OR NO CLOUDS BELOW 12000 FEET WITH NO
SIGNIFICANT WEATHER AND/OR OBSTRUCTIONS TO VISIBILITY.

* THESE STATIONS ARE NOT UNDER NWS QUALITY CONTROL. THEY DO NOT
   REPORT WEATHER SUCH AS PRECIPITATION OR FOG.

MTZ001>007-043-291600-
WEST OF THE DIVIDE
CITY           SKY/WX    TMP DP  RH WIND       PRES   REMARKS
KALISPELL      CLOUDY    41  36  82 S7        30.25S
MISSOULA       PTCLDY    30  28  92 CALM      30.34R
BUTTE          PTSUNNY   27  19  72 CALM      30.31R
MULLAN PASS    PTCLDY    30  28  92 VRB5      30.25R WCI  25
* ESSEX        N/A       34  34 100 S1         N/A
* EUREKA APT   PTSUNNY   45  34  65 SE8       30.24S
* HAMILTON APT PTSUNNY   39  27  62 S17       30.32R WCI  30
* LIBBY APT    PTSUNNY   37  36  96 CALM      30.26F
* LINCOLN      N/A       36  26  67 E1         N/A
* LOOKOUT PASS N/A       32  32 100 S2         N/A
* POLSON       N/A       36  32  85 SE1        N/A
* RONAN APT    PTSUNNY   36  30  79 N/A        N/A
* SEELEY LAKE  N/A       30  29  96 NE3        N/A
* THOMP F APT  PTCLDY    30  13  49 N/A        N/A
$$

MTZ008-052>055-291600-
SOUTHWEST MONTANA
CITY           SKY/WX    TMP DP  RH WIND       PRES   REMARKS
BOZEMAN        PTSUNNY   34  25  70 SE3       30.28F
DILLON         CLOUDY    30  19  64 S6        30.30F WCI  24
* W YELLOWSTON PTCLDY    22  17  81 N/A        N/A
* THREE FORKS  CLOUDY    30  25  82 N/A        N/A
* TWIN BRIDGES CLOUDY    30  18  61 SE10       N/A   WCI  21
* BOULDER HILL N/A       36  18  48 S18        N/A   WCI  26
* HOMESTAKE PS N/A       32  17  54 W1         N/A
* MONIDA PASS  N/A       29  19  66 NE1        N/A
* RAYNOLDS PAS N/A       24   7  48 SE11       N/A   WCI  13
* WHITEHALL    N/A       33  21  61 NW4G10     N/A
* WISE RIVER   N/A       27  22  81 W4         N/A
$$

MTZ009>010-012-014-046-048-049-054-291600-
EAST SLOPES AND CENTRAL MONTANA
CITY           SKY/WX    TMP DP  RH WIND       PRES   REMARKS
CUT BANK       CLOUDY    45  28  51 W22       30.10S
GREAT FALLS    CLOUDY    45  27  49 SW16      30.16S
HELENA         CLOUDY    45  25  45 W3        30.25F
MALMSTROM AFB  PTSUNNY   46  28  50 SW21G26   30.16F
* CONRAD       PTSUNNY   34  27  76 S10        N/A   WCI  26
* DEARBORN     N/A       46  25  44 S14G19     N/A
* EAST GLACIER N/A       38  28  67 W26G32     N/A   WCI  26
* MONARCH      N/A       37  21  52 SW12G19    N/A   WCI  29
* PENDROY      N/A       43  27  53 N/A        N/A
* ROGERS PASS  N/A       35  23  62 SE12G32    N/A   WCI  27
* SAINT MARY   N/A       40  26  57 SW9G26     N/A   WCI  34
* WHITE SULPH  N/A       41  23  49 S11G19     N/A
$$

MTZ011-013-016-021-035-040-045-047-050-051-291600-
NORTH CENTRAL MONTANA
CITY           SKY/WX    TMP DP  RH WIND       PRES   REMARKS
HAVRE          SUNNY     43  34  71 SW22      30.09F
LEWISTOWN      SUNNY     45  30  56 SW14      30.17S
* N BAR RANCH  SUNNY     43  30  60 CALM      30.18S
* CHINOOK      SUNNY     45  37  74 CALM      30.09F
* FORT BENTON  PTCLDY    46  30  54 SW9G16    30.14F
* MALTA APT    SUNNY     36  32  85 SW6        N/A   WCI  31
* CHESTER      N/A       34  29  82 SW4        N/A
* DENTON       N/A       43  31  63 SW9        N/A
* GEYSER       N/A       43  25  49 SW17G22    N/A
* JUDITH GAP   N/A       41  24  51 SW12G18    N/A
* LOMA         N/A       39  30  70 N/A        N/A
$$

MTZ017>020-022>027-061-062-291600-
NORTHEAST MONTANA
CITY           SKY/WX    TMP DP  RH WIND       PRES   REMARKS
GLASGOW        SUNNY     39  36  89 NW5       30.12R WCI  35
GLENDIVE       SUNNY     46  39  77 W13       30.13F
JORDAN         SUNNY     45  37  74 W8        30.13S
SIDNEY         SUNNY     45  37  74 W13       30.10F
WOLF POINT     SUNNY     41  37  86 W8G20     30.11S
* BEAVER HILL  N/A       41  35  79 SW15       N/A
* CIRCLE       N/A       43  41  93 SW9G16     N/A
* LINDSAY DVD  N/A       42  39  89 W15G24     N/A
* NAVAJO       N/A       38  35  89 W16        N/A   WCI  29
* POPLAR APT   SUNNY     39  37  93 SW12      30.11S WCI  32
* SACO         N/A       39  35  86 N/A        N/A
$$

MTZ028>042-056>058-291600-
SOUTHCENTRAL AND SOUTHEAST MONTANA
CITY           SKY/WX    TMP DP  RH WIND       PRES   REMARKS
BAKER          SUNNY     43 N/A N/A W12       30.14F
BILLINGS       PTCLDY    46  23  40 S8        30.21F
LIVINGSTON     PTCLDY    43  19  38 W17       30.24F
MILES CITY     SUNNY     46  36  68 W13       30.16S
* BIG TIMBER A PTCLDY    43  19  38 W28G36    30.18F
* FORSYTH APT  SUNNY     45  34  65 W7        30.17S
* LAUREL APT   PTCLDY    45  21  38 N/A        N/A
* ROUNDUP APT  SUNNY     43  25  49 S7         N/A
* ALZADA       N/A       43  36  76 SW7        N/A
* HYSHAM       N/A       43  27  53 W8         N/A
* LAME DEER    N/A       40  27  60 W12        N/A   WCI  33
* REED POINT   N/A       46  23  40 W15G20     N/A
* ROSCOE HILL  N/A       38  11  33 SE2        N/A
$$

REGIONAL REPORTS...DAKOTAS
CITY           SKY/WX    TMP DP  RH WIND       PRES   REMARKS
WILLISTON      PTCLDY    43  36  76 W17       30.06S
DICKINSON      SUNNY     39  36  89 NW20      30.07S WCI  29
BEACH          SUNNY     41  39  93 W18G24    30.12S
CROSBY         SUNNY     39  39 100 W16       30.03S WCI  30
TIOGA          SUNNY     37  37 100 NW14      30.06F WCI  28
WATFORD CITY   SUNNY     41  37  86 W15       30.06S
BISMARCK       SUNNY     45  34  65 NW21G30   30.02R
GRAND FORKS    PTCLDY    43  36  76 N24G35    29.79R
FARGO          LGT RAIN  43  36  76 NW30G38   29.77R
BUFFALO SD     SUNNY     43  32  65 W17       30.09F
RAPID CITY     PTCLDY    46  34  63 N23G35    30.19R
$$

REGIONAL REPORTS...WYOMING/IDAHO/WASHINGTON
CITY           SKY/WX    TMP DP  RH WIND       PRES   REMARKS
GILLETTE       SUNNY     46  27  48 NW17      30.23F
SHERIDAN       SUNNY     46  27  48 CALM      30.23F
CODY           SUNNY     48  16  28 SW18G28   30.21F
YELLOWSTONE LA PTCLDY    23  18  81 E3        30.36R
SALMON         PTCLDY    30  25  82 CALM      30.37S
MULLAN PASS    PTCLDY    30  28  92 VRB5      30.25S WCI  25
SAND POINT     CLOUDY    39  39 100 CALM      30.29R
SPOKANE        CLOUDY    41  36  82 SE8       30.26S
$$

REGIONAL REPORTS...ALBERTA
CITY           SKY/WX    TMP DP  RH WIND       PRES   REMARKS
CALGARY        PTSUNNY   41  28  60 S7        29.95F
LETHBRIDGE     PTSUNNY   48  32  54 W21G30    30.02F
MEDICINE HAT   PTCLDY    43  36  76 SW16      30.01F
EDMONTON       PTSUNNY   37  30  76 SE5       29.86F WCI  33
WATERTON GATE  N/A       43  25  49 SW21G30    N/A
CARDSTON       N/A       45  28  51 SE7        N/A
MILK RIVER     N/A       45  32  60 SW16G22    N/A
$$

REGIONAL REPORTS...SASKATCHEWAN
CITY           SKY/WX    TMP DP  RH WIND       PRES   REMARKS
SWIFT CURRENT  SUNNY     41  36  82 SW12      30.01F
REGINA         PTCLDY    37  36  96 W14G20    30.00R WCI  28
VAL MARIE      N/A       37  36  96 SW8        N/A   WCI  31
ASSINIBOIA     N/A       41  36  82 W13        N/A
CORONACH       N/A       41  37  86 W9         N/A

$$




USA.gov is the U.S. government's official web portal to all federal, state and local government web resources and services.